DLH5EF EDDF-EGBB

Flight info

Callsign DLH5EF
Flight time 1h 21m
Altitude 36000
Route OBOKA2E/07C OBOKA Z29 TORNU DCT GALSO Q63 ERING L179 LAM L610 HEMEL
Aircraft A320/M-SDE3FGHIRWY/LB1

Departure

Time 2026-04-14 15:29
Airport Frankfurt Main Airport (EDDF)

Arrival

Time 2026-04-14 16:50
Airport Birmingham Airport (EGBB)
Time Latitude Longitude Altitude Speed Heading
2026-04-14 15:01 50.04615 8.57198 364 ft 0 kts
2026-04-14 15:18 50.04613 8.57197 365 ft 2 kts
2026-04-14 15:18 50.04587 8.57195 361 ft 4 kts
2026-04-14 15:19 50.04565 8.57194 360 ft 4 kts 345°
2026-04-14 15:19 50.04549 8.57213 362 ft 4 kts 274°
2026-04-14 15:19 50.04553 8.57253 358 ft 4 kts 251°
2026-04-14 15:19 50.04562 8.57292 359 ft 4 kts 249°
2026-04-14 15:20 50.04564 8.57300 360 ft 1 kts 249°
2026-04-14 15:20 50.04564 8.57301 360 ft 0 kts 249°
2026-04-14 15:23 50.04553 8.57251 358 ft 10 kts 250°
2026-04-14 15:23 50.04530 8.57156 359 ft 10 kts 249°
2026-04-14 15:23 50.04487 8.56977 358 ft 20 kts 249°
2026-04-14 15:24 50.04412 8.56848 364 ft 15 kts 193°
2026-04-14 15:24 50.04313 8.56818 360 ft 14 kts 191°
2026-04-14 15:24 50.04236 8.56730 358 ft 16 kts 246°
2026-04-14 15:24 50.04184 8.56519 360 ft 22 kts 249°
2026-04-14 15:25 50.04131 8.56302 355 ft 22 kts 249°
2026-04-14 15:25 50.04081 8.56089 358 ft 20 kts 250°
2026-04-14 15:25 50.04033 8.55891 352 ft 19 kts 249°
2026-04-14 15:25 50.03988 8.55704 356 ft 18 kts 249°
2026-04-14 15:26 50.03943 8.55509 349 ft 20 kts 250°
2026-04-14 15:26 50.03895 8.55308 350 ft 19 kts 250°
2026-04-14 15:26 50.03850 8.55124 356 ft 17 kts 249°
2026-04-14 15:26 50.03809 8.54955 349 ft 16 kts 249°
2026-04-14 15:27 50.03762 8.54760 354 ft 25 kts 250°
2026-04-14 15:27 50.03701 8.54495 349 ft 28 kts 250°
2026-04-14 15:27 50.03647 8.54320 347 ft 13 kts 217°
2026-04-14 15:27 50.03527 8.54356 348 ft 20 kts 156°
2026-04-14 15:28 50.03525 8.54561 347 ft 30 kts 70°
2026-04-14 15:28 50.03685 8.55229 352 ft 100 kts 69°
2026-04-14 15:28 50.03994 8.56523 358 ft 152 kts 69°
2026-04-14 15:28 50.04386 8.58209 717 ft 169 kts 68°
2026-04-14 15:29 50.04790 8.59946 1416 ft 174 kts 68°
2026-04-14 15:29 50.05244 8.61791 1759 ft 194 kts 62°
2026-04-14 15:29 50.06221 8.63305 2219 ft 207 kts 22°
2026-04-14 15:29 50.07636 8.63611 3023 ft 208 kts 358°
2026-04-14 15:30 50.09098 8.63512 3858 ft 211 kts 358°
2026-04-14 15:30 50.10577 8.63400 4654 ft 218 kts 358°
2026-04-14 15:30 50.12173 8.63280 5077 ft 241 kts 358°
2026-04-14 15:30 50.13909 8.63153 5703 ft 255 kts 358°
2026-04-14 15:31 50.15697 8.63026 6571 ft 259 kts 358°
2026-04-14 15:31 50.17520 8.62900 7393 ft 264 kts 358°
2026-04-14 15:31 50.19347 8.62776 8189 ft 270 kts 357°
2026-04-14 15:31 50.21246 8.62650 8971 ft 277 kts 356°
2026-04-14 15:32 50.23200 8.62519 9695 ft 285 kts 356°
2026-04-14 15:32 50.25212 8.62382 10402 ft 293 kts 355°
2026-04-14 15:32 50.27330 8.62237 10706 ft 316 kts 356°
2026-04-14 15:32 50.29578 8.61729 10943 ft 336 kts 340°
2026-04-14 15:33 50.31683 8.60066 11467 ft 343 kts 322°
2026-04-14 15:33 50.33354 8.57401 12158 ft 346 kts 304°
2026-04-14 15:33 50.34408 8.54013 12856 ft 349 kts 289°
2026-04-14 15:33 50.35188 8.50406 13631 ft 351 kts 289°
2026-04-14 15:34 50.35972 8.46755 14309 ft 356 kts 289°
2026-04-14 15:34 50.36767 8.43060 14928 ft 360 kts 289°
2026-04-14 15:34 50.37392 8.39258 15592 ft 362 kts 279°
2026-04-14 15:34 50.37520 8.35350 16231 ft 367 kts 268°
2026-04-14 15:35 50.37118 8.31329 16830 ft 372 kts 256°
2026-04-14 15:35 50.36345 8.27437 17430 ft 376 kts 253°
2026-04-14 15:35 50.35562 8.23566 18050 ft 379 kts 253°
2026-04-14 15:35 50.34757 8.19565 18647 ft 382 kts 254°
2026-04-14 15:36 50.33972 8.15640 19170 ft 384 kts 254°
2026-04-14 15:36 50.33173 8.11633 19684 ft 387 kts 254°
2026-04-14 15:36 50.32364 8.07596 20196 ft 390 kts 254°
2026-04-14 15:36 50.31546 8.03539 20703 ft 393 kts 253°
2026-04-14 15:37 50.30720 7.99452 21219 ft 395 kts 254°
2026-04-14 15:37 50.30133 7.95250 21713 ft 397 kts 265°
2026-04-14 15:37 50.30064 7.90933 22192 ft 398 kts 276°
2026-04-14 15:37 50.30529 7.86677 22672 ft 399 kts 287°
2026-04-14 15:38 50.31502 7.82613 23153 ft 400 kts 296°
2026-04-14 15:38 50.32668 7.78655 23640 ft 402 kts 296°
2026-04-14 15:38 50.33832 7.74664 24056 ft 404 kts 296°
2026-04-14 15:38 50.35236 7.70850 24450 ft 405 kts 306°
2026-04-14 15:39 50.37066 7.67495 24839 ft 405 kts 317°
2026-04-14 15:39 50.39267 7.64725 25232 ft 406 kts 327°
2026-04-14 15:39 50.41760 7.62630 25623 ft 408 kts 336°
2026-04-14 15:39 50.44364 7.60857 26011 ft 409 kts 336°
2026-04-14 15:40 50.46980 7.59068 26405 ft 411 kts 336°
2026-04-14 15:40 50.49603 7.57265 26786 ft 412 kts 336°
2026-04-14 15:40 50.52234 7.55449 27161 ft 414 kts 336°
2026-04-14 15:40 50.54871 7.53614 27536 ft 415 kts 334°
2026-04-14 15:41 50.57387 7.51375 27897 ft 417 kts 327°
2026-04-14 15:41 50.59815 7.48871 28259 ft 419 kts 327°
2026-04-14 15:41 50.62259 7.46358 28600 ft 420 kts 328°
2026-04-14 15:41 50.64705 7.43850 29026 ft 419 kts 327°
2026-04-14 15:42 50.67152 7.41343 29401 ft 420 kts 328°
2026-04-14 15:42 50.69603 7.38828 29739 ft 421 kts 328°
2026-04-14 15:42 50.72006 7.36177 30057 ft 423 kts 322°
2026-04-14 15:42 50.74140 7.32955 30354 ft 426 kts 313°
2026-04-14 15:43 50.75919 7.29205 30719 ft 428 kts 304°
2026-04-14 15:43 50.77342 7.25074 31085 ft 428 kts 300°
2026-04-14 15:43 50.78697 7.20893 31464 ft 426 kts 300°
2026-04-14 15:43 50.80047 7.16736 31833 ft 425 kts 300°
2026-04-14 15:44 50.81391 7.12596 32215 ft 423 kts 300°
2026-04-14 15:44 50.82732 7.08460 32593 ft 421 kts 300°
2026-04-14 15:44 50.84068 7.04342 32954 ft 420 kts 300°
2026-04-14 15:44 50.85392 7.00249 33396 ft 416 kts 301°
2026-04-14 15:45 50.86710 6.96176 33803 ft 414 kts 301°
2026-04-14 15:45 50.88020 6.92129 34189 ft 412 kts 301°
2026-04-14 15:45 50.89324 6.88081 34493 ft 412 kts 300°
2026-04-14 15:45 50.90602 6.84092 34752 ft 412 kts 300°
2026-04-14 15:46 50.91899 6.80029 34992 ft 413 kts 300°
2026-04-14 15:46 50.93198 6.75963 35197 ft 414 kts 300°
2026-04-14 15:46 50.94500 6.71891 35418 ft 414 kts 300°
2026-04-14 15:46 50.95805 6.67812 35634 ft 415 kts 300°
2026-04-14 15:47 50.97110 6.63723 35848 ft 416 kts 299°
2026-04-14 15:47 50.98415 6.59630 36048 ft 416 kts 299°
2026-04-14 15:47 50.99722 6.55528 36193 ft 416 kts 299°
2026-04-14 15:47 51.01028 6.51420 36222 ft 416 kts 299°
2026-04-14 15:48 51.03625 6.43201 36223 ft 416 kts 299°
2026-04-14 15:48 51.06214 6.34947 36222 ft 416 kts 299°
2026-04-14 15:49 51.08776 6.26763 36214 ft 416 kts 299°
2026-04-14 15:49 51.11356 6.18524 36221 ft 416 kts 299°
2026-04-14 15:50 51.13865 6.10220 36218 ft 417 kts 293°
2026-04-14 15:50 51.15436 6.01283 36234 ft 419 kts 288°
2026-04-14 15:51 51.16887 5.92295 36221 ft 419 kts 288°
2026-04-14 15:51 51.18343 5.83311 36221 ft 418 kts 288°
2026-04-14 15:52 51.20086 5.74497 36236 ft 416 kts 292°
2026-04-14 15:52 51.22089 5.65855 36232 ft 415 kts 293°
2026-04-14 15:53 51.24071 5.57222 36235 ft 414 kts 292°
2026-04-14 15:53 51.25968 5.48541 36234 ft 414 kts 292°
2026-04-14 15:54 51.28756 5.35490 36229 ft 413 kts 292°
2026-04-14 15:55 51.30624 5.26797 36229 ft 413 kts 292°
2026-04-14 15:55 51.32483 5.18116 36225 ft 412 kts 292°
2026-04-14 15:56 51.34335 5.09442 36219 ft 411 kts 292°
2026-04-14 15:56 51.36157 5.00839 36219 ft 411 kts 292°
2026-04-14 15:57 51.37983 4.92198 36217 ft 410 kts 292°
2026-04-14 15:57 51.39801 4.83545 36215 ft 410 kts 292°
2026-04-14 15:58 51.41615 4.74885 36206 ft 409 kts 293°
2026-04-14 15:58 51.43411 4.66275 36225 ft 407 kts 293°
2026-04-14 15:59 51.45194 4.57686 36222 ft 405 kts 293°
2026-04-14 15:59 51.46963 4.49122 36217 ft 404 kts 293°
2026-04-14 16:00 51.48720 4.40579 36214 ft 403 kts 293°
2026-04-14 16:00 51.50477 4.32029 36225 ft 403 kts 292°
2026-04-14 16:01 51.52218 4.23489 36221 ft 403 kts 292°
2026-04-14 16:01 51.53956 4.14935 36206 ft 402 kts 292°
2026-04-14 16:02 51.55681 4.06391 36209 ft 402 kts 292°
2026-04-14 16:02 51.57404 3.97833 36213 ft 402 kts 292°
2026-04-14 16:03 51.59115 3.89322 36213 ft 402 kts 292°
2026-04-14 16:03 51.60830 3.80754 36214 ft 402 kts 293°
2026-04-14 16:04 51.62529 3.72203 36223 ft 400 kts 293°
2026-04-14 16:04 51.64217 3.63683 36228 ft 399 kts 293°
2026-04-14 16:05 51.65620 3.56548 36227 ft 399 kts 292°
2026-04-14 16:05 51.67286 3.48037 36231 ft 398 kts 292°
2026-04-14 16:06 51.68948 3.39529 36229 ft 398 kts 292°
2026-04-14 16:06 51.70591 3.31085 36222 ft 397 kts 292°
2026-04-14 16:07 51.72235 3.22589 36226 ft 396 kts 292°
2026-04-14 16:07 51.72946 3.13673 36227 ft 411 kts 273°
2026-04-14 16:08 51.72183 3.04454 36218 ft 415 kts 269°
2026-04-14 16:08 51.71371 2.95232 36217 ft 415 kts 269°
2026-04-14 16:09 51.70567 2.86004 36194 ft 415 kts 269°
2026-04-14 16:09 51.69757 2.76794 36205 ft 415 kts 269°
2026-04-14 16:10 51.68935 2.67590 36201 ft 415 kts 269°
2026-04-14 16:10 51.68115 2.58378 36204 ft 414 kts 269°
2026-04-14 16:11 51.67288 2.49193 36210 ft 414 kts 269°
2026-04-14 16:11 51.66452 2.40008 36183 ft 414 kts 269°
2026-04-14 16:12 51.65611 2.30819 36191 ft 414 kts 269°
2026-04-14 16:12 51.64765 2.21729 36201 ft 413 kts 269°
2026-04-14 16:13 51.63897 2.12575 36206 ft 413 kts 269°
2026-04-14 16:13 51.63038 2.03433 36202 ft 413 kts 269°
2026-04-14 16:14 51.62192 1.94291 36206 ft 413 kts 269°
2026-04-14 16:14 51.61339 1.85161 36178 ft 412 kts 268°
2026-04-14 16:15 51.60482 1.76044 36189 ft 412 kts 268°
2026-04-14 16:15 51.59611 1.66921 36189 ft 412 kts 268°
2026-04-14 16:16 51.59206 1.57839 36191 ft 402 kts 280°
2026-04-14 16:16 51.59618 1.48884 36182 ft 402 kts 279°
2026-04-14 16:17 51.59996 1.39917 36173 ft 402 kts 279°
2026-04-14 16:17 51.60360 1.30958 35972 ft 401 kts 279°
2026-04-14 16:17 51.60547 1.26478 35723 ft 400 kts 279°
2026-04-14 16:18 51.60724 1.22159 35483 ft 401 kts 279°
2026-04-14 16:18 51.60893 1.18006 35254 ft 402 kts 278°
2026-04-14 16:18 51.61075 1.13500 34502 ft 406 kts 278°
2026-04-14 16:18 51.61262 1.08938 33495 ft 412 kts 278°
2026-04-14 16:19 51.61450 1.04311 32472 ft 417 kts 278°
2026-04-14 16:19 51.61635 0.99687 31468 ft 422 kts 278°
2026-04-14 16:19 51.61819 0.94940 30601 ft 424 kts 278°
2026-04-14 16:19 51.61994 0.90258 30300 ft 416 kts 278°
2026-04-14 16:20 51.62166 0.85611 30117 ft 415 kts 278°
2026-04-14 16:20 51.62505 0.76347 30139 ft 415 kts 278°
2026-04-14 16:21 51.62839 0.67082 30089 ft 414 kts 277°
2026-04-14 16:21 51.63003 0.62487 29474 ft 409 kts 277°
2026-04-14 16:21 51.63162 0.57937 28785 ft 405 kts 277°
2026-04-14 16:21 51.63307 0.53723 28186 ft 402 kts 277°
2026-04-14 16:22 51.63463 0.49259 27552 ft 398 kts 277°
2026-04-14 16:22 51.63619 0.44821 26936 ft 394 kts 276°
2026-04-14 16:22 51.63769 0.40436 26363 ft 390 kts 276°
2026-04-14 16:22 51.63915 0.36093 25769 ft 387 kts 276°
2026-04-14 16:23 51.64060 0.31778 25266 ft 384 kts 275°
2026-04-14 16:23 51.64202 0.27481 25048 ft 386 kts 275°
2026-04-14 16:23 51.64343 0.23160 24807 ft 385 kts 275°
2026-04-14 16:23 51.64489 0.18922 24577 ft 384 kts 277°
2026-04-14 16:24 51.64949 0.14659 24343 ft 380 kts 287°
2026-04-14 16:24 51.65863 0.10679 24110 ft 378 kts 295°
2026-04-14 16:24 51.66948 0.06891 23880 ft 378 kts 295°
2026-04-14 16:24 51.68042 0.03033 23651 ft 377 kts 295°
2026-04-14 16:25 51.69121 -0.00806 23378 ft 376 kts 294°
2026-04-14 16:25 51.70195 -0.04653 23099 ft 376 kts 294°
2026-04-14 16:25 51.71266 -0.08485 22828 ft 375 kts 294°
2026-04-14 16:25 51.72341 -0.12323 22562 ft 374 kts 294°
2026-04-14 16:26 51.73406 -0.16131 22294 ft 374 kts 294°
2026-04-14 16:26 51.74470 -0.19952 22086 ft 373 kts 294°
2026-04-14 16:26 51.75533 -0.23779 22081 ft 373 kts 294°
2026-04-14 16:26 51.76593 -0.27607 22084 ft 374 kts 294°
2026-04-14 16:27 51.77653 -0.31443 22084 ft 374 kts 294°
2026-04-14 16:27 51.78715 -0.35275 22084 ft 374 kts 294°
2026-04-14 16:27 51.79915 -0.38989 21967 ft 372 kts 302°
2026-04-14 16:27 51.81528 -0.42226 21412 ft 371 kts 313°
2026-04-14 16:28 51.83532 -0.44838 20824 ft 372 kts 325°
2026-04-14 16:28 51.85758 -0.46980 20234 ft 372 kts 327°
2026-04-14 16:28 51.87981 -0.49114 19664 ft 371 kts 326°
2026-04-14 16:28 51.90191 -0.51257 19127 ft 370 kts 326°
2026-04-14 16:29 51.92395 -0.53405 18604 ft 369 kts 326°
2026-04-14 16:29 51.94594 -0.55560 18062 ft 368 kts 326°
2026-04-14 16:29 51.96779 -0.57705 17503 ft 367 kts 326°
2026-04-14 16:29 51.98958 -0.59842 17006 ft 364 kts 326°
2026-04-14 16:30 52.01115 -0.61958 16518 ft 361 kts 325°
2026-04-14 16:30 52.03255 -0.64053 16057 ft 358 kts 326°
2026-04-14 16:30 52.05364 -0.66119 15580 ft 357 kts 326°
2026-04-14 16:30 52.07511 -0.68228 15072 ft 356 kts 326°
2026-04-14 16:31 52.09624 -0.70307 14615 ft 354 kts 326°
2026-04-14 16:31 52.11722 -0.72376 14164 ft 352 kts 326°
2026-04-14 16:31 52.13779 -0.74406 13679 ft 350 kts 325°
2026-04-14 16:31 52.15854 -0.76458 13154 ft 348 kts 326°
2026-04-14 16:32 52.17922 -0.78501 12650 ft 346 kts 326°
2026-04-14 16:32 52.19977 -0.80525 12132 ft 344 kts 326°
2026-04-14 16:32 52.21957 -0.82679 11621 ft 340 kts 317°
2026-04-14 16:32 52.23608 -0.85402 11095 ft 335 kts 304°
2026-04-14 16:33 52.24849 -0.88568 10613 ft 329 kts 293°
2026-04-14 16:33 52.25663 -0.92020 10152 ft 323 kts 282°
2026-04-14 16:33 52.26153 -0.95546 9942 ft 312 kts 279°
2026-04-14 16:33 52.26614 -0.98900 9803 ft 291 kts 279°
2026-04-14 16:34 52.27048 -1.02002 9676 ft 269 kts 278°
2026-04-14 16:34 52.27451 -1.04880 9517 ft 253 kts 278°
2026-04-14 16:34 52.27831 -1.07641 9261 ft 246 kts 278°
2026-04-14 16:34 52.28202 -1.10392 8644 ft 253 kts 278°
2026-04-14 16:35 52.28579 -1.13217 8191 ft 257 kts 278°
2026-04-14 16:35 52.29020 -1.16081 8072 ft 262 kts 283°
2026-04-14 16:35 52.29627 -1.18872 8074 ft 255 kts 285°
2026-04-14 16:35 52.30232 -1.21514 8076 ft 244 kts 286°
2026-04-14 16:36 52.30828 -1.24101 8080 ft 243 kts 286°
2026-04-14 16:36 52.31420 -1.26678 8081 ft 242 kts 285°
2026-04-14 16:36 52.32003 -1.29218 8082 ft 242 kts 285°
2026-04-14 16:36 52.32597 -1.31792 8082 ft 242 kts 285°
2026-04-14 16:37 52.33190 -1.34364 8082 ft 242 kts 285°
2026-04-14 16:37 52.33793 -1.36974 8081 ft 242 kts 285°
2026-04-14 16:37 52.34387 -1.39544 8081 ft 242 kts 285°
2026-04-14 16:37 52.34982 -1.42111 8080 ft 242 kts 286°
2026-04-14 16:38 52.35577 -1.44689 8079 ft 242 kts 285°
2026-04-14 16:38 52.36164 -1.47229 8078 ft 242 kts 285°
2026-04-14 16:38 52.36761 -1.49816 8071 ft 243 kts 285°
2026-04-14 16:38 52.37367 -1.52399 8060 ft 243 kts 285°
2026-04-14 16:39 52.37976 -1.54982 8057 ft 243 kts 285°
2026-04-14 16:39 52.38585 -1.57556 8056 ft 242 kts 285°
2026-04-14 16:39 52.39193 -1.60129 8033 ft 242 kts 285°
2026-04-14 16:39 52.39800 -1.62687 7706 ft 241 kts 285°
2026-04-14 16:40 52.40404 -1.65235 7363 ft 239 kts 285°
2026-04-14 16:40 52.41007 -1.67768 7016 ft 239 kts 285°
2026-04-14 16:40 52.41610 -1.70305 6690 ft 238 kts 285°
2026-04-14 16:40 52.42209 -1.72817 6405 ft 235 kts 285°
2026-04-14 16:41 52.42805 -1.75304 6066 ft 234 kts 285°
2026-04-14 16:41 52.43401 -1.77779 5684 ft 236 kts 285°
2026-04-14 16:41 52.44006 -1.80286 5361 ft 234 kts 285°
2026-04-14 16:41 52.44604 -1.82732 5047 ft 232 kts 285°
2026-04-14 16:42 52.45212 -1.85181 4687 ft 231 kts 285°
2026-04-14 16:42 52.45900 -1.87568 4287 ft 237 kts 301°
2026-04-14 16:42 52.47197 -1.89293 3920 ft 247 kts 329°
2026-04-14 16:42 52.48791 -1.90409 3528 ft 251 kts 335°
2026-04-14 16:43 52.50432 -1.91445 3170 ft 252 kts 335°
2026-04-14 16:43 52.51986 -1.92711 3001 ft 247 kts 320°
2026-04-14 16:43 52.53354 -1.94424 3002 ft 245 kts 316°
2026-04-14 16:43 52.54645 -1.96129 2998 ft 232 kts 315°
2026-04-14 16:44 52.55872 -1.97745 2994 ft 223 kts 315°
2026-04-14 16:44 52.57090 -1.99293 3023 ft 222 kts 322°
2026-04-14 16:44 52.58571 -1.99999 3007 ft 227 kts
2026-04-14 16:45 52.60958 -1.97359 2997 ft 209 kts 78°
2026-04-14 16:45 52.61077 -1.95101 2998 ft 192 kts 106°
2026-04-14 16:45 52.60783 -1.93053 2990 ft 178 kts 122°
2026-04-14 16:45 52.60122 -1.91411 2998 ft 168 kts 141°
2026-04-14 16:46 52.59240 -1.90283 2988 ft 157 kts 151°
2026-04-14 16:46 52.58341 -1.89275 2995 ft 155 kts 152°
2026-04-14 16:46 52.57454 -1.88280 2917 ft 153 kts 152°
2026-04-14 16:46 52.56588 -1.87308 2771 ft 148 kts 152°
2026-04-14 16:47 52.55751 -1.86371 2587 ft 144 kts 152°
2026-04-14 16:47 52.54930 -1.85453 2406 ft 142 kts 152°
2026-04-14 16:47 52.54113 -1.84540 2217 ft 142 kts 151°
2026-04-14 16:47 52.53298 -1.83629 2041 ft 141 kts 150°
2026-04-14 16:48 52.52481 -1.82717 1838 ft 142 kts 150°
2026-04-14 16:48 52.51662 -1.81802 1636 ft 143 kts 149°
2026-04-14 16:48 52.51117 -1.81194 1492 ft 143 kts 149°
2026-04-14 16:48 52.50313 -1.80295 1296 ft 135 kts 150°
2026-04-14 16:49 52.49554 -1.79448 1113 ft 131 kts 150°
2026-04-14 16:49 52.48825 -1.78637 947 ft 129 kts 148°
2026-04-14 16:49 52.48086 -1.77808 765 ft 129 kts 147°
2026-04-14 16:49 52.47350 -1.76987 619 ft 129 kts 148°
2026-04-14 16:50 52.46596 -1.76150 405 ft 130 kts 148°
2026-04-14 16:50 52.45871 -1.75339 320 ft 118 kts 147°
2026-04-14 16:50 52.45316 -1.74724 325 ft 73 kts 146°
2026-04-14 16:50 52.45023 -1.74394 329 ft 30 kts 147°
2026-04-14 16:51 52.44953 -1.74200 325 ft 20 kts 76°
2026-04-14 16:51 52.44980 -1.74033 325 ft 11 kts 75°
2026-04-14 16:51 52.45005 -1.73914 324 ft 10 kts 53°
2026-04-14 16:51 52.45064 -1.73913 323 ft 9 kts 325°
2026-04-14 16:52 52.45110 -1.73965 323 ft 7 kts 325°
2026-04-14 16:52 52.45150 -1.74011 323 ft 8 kts 325°
2026-04-14 16:52 52.45229 -1.74101 323 ft 15 kts 325°
2026-04-14 16:52 52.45313 -1.74115 323 ft 12 kts 54°
2026-04-14 16:53 52.45312 -1.73986 323 ft 11 kts 77°
2026-04-14 16:53 52.45350 -1.73886 323 ft 9 kts 56°
2026-04-14 16:53 52.45384 -1.73806 323 ft 8 kts 56°
2026-04-14 16:53 52.45382 -1.73737 322 ft 6 kts 137°
2026-04-14 16:54 52.45353 -1.73706 322 ft 3 kts 147°
2026-04-14 16:54 52.45350 -1.73703 322 ft 0 kts 146°